ECMWFNIL_850_dewp_021.txt.gz
Dewpoint
-6 -6 -6 -6 -6 -6 -6 -6 -7 -7 -7 -7 -7 -7 -6 -5 -5 -6 -6 -6 -6 -6 -6 -6 -6 -6 -6 -6 -6 -7 -7 -7 -10 -13 -18 -20 -20 -20 -22 -25 -26 -25
-8 -7 -7 -7 -6 -6 -6 -6 -6 -6 -7 -7 -7 -7 -7 -7 -6 -6 -6 -6 -6 -6 -6 -6 -6 -6 -6 -6 -6 -7 -7 -8 -10 -12 -15 -18 -20 -20 -20 -21 -24 -27
-10 -10 -9 -9 -8 -7 -6 -6 -6 -6 -6 -6 -6 -7 -7 -7 -7 -7 -7 -7 -6 -6 -6 -6 -6 -6 -6 -6 -6 -6 -6 -7 -9 -10 -13 -16 -18 -19 -19 -19 -20 -25
-12 -11 -11 -10 -10 -9 -9 -8 -7 -7 -6 -6 -6 -6 -6 -6 -7 -7 -7 -7 -7 -7 -6 -6 -6 -6 -6 -6 -6 -6 -6 -7 -7 -9 -11 -13 -16 -17 -18 -18 -18 -21
-16 -14 -13 -12 -10 -10 -9 -9 -9 -8 -8 -7 -7 -6 -6 -6 -6 -6 -7 -7 -7 -7 -7 -7 -6 -6 -6 -6 -6 -6 -6 -6 -6 -7 -9 -11 -13 -15 -16 -17 -18 -18
-20 -19 -18 -16 -14 -12 -11 -10 -9 -9 -9 -8 -8 -8 -7 -6 -6 -6 -6 -6 -6 -7 -7 -7 -7 -7 -7 -6 -6 -6 -6 -6 -6 -6 -7 -8 -10 -12 -13 -15 -16 -17
-22 -22 -22 -21 -20 -18 -16 -14 -12 -10 -9 -8 -8 -8 -8 -8 -7 -7 -6 -6 -6 -6 -7 -7 -7 -7 -7 -7 -7 -7 -6 -6 -6 -6 -6 -7 -7 -9 -11 -12 -14 -15
-26 -25 -25 -24 -24 -23 -22 -20 -18 -15 -13 -11 -9 -9 -8 -8 -8 -7 -7 -7 -6 -6 -6 -6 -7 -7 -7 -8 -7 -7 -7 -7 -7 -6 -6 -6 -7 -7 -8 -9 -10 -12
-30 -29 -28 -27 -27 -27 -26 -25 -23 -21 -19 -17 -14 -11 -9 -9 -8 -8 -8 -7 -7 -6 -6 -6 -6 -7 -7 -7 -7 -8 -7 -7 -7 -7 -6 -7 -7 -7 -7 -7 -8 -9
-32 -32 -31 -31 -31 -31 -30 -29 -28 -27 -25 -22 -20 -17 -14 -11 -10 -9 -8 -8 -7 -7 -7 -6 -6 -7 -7 -7 -7 -7 -8 -8 -7 -7 -7 -7 -7 -7 -7 -7 -7 -7
-34 -33 -32 -32 -32 -32 -32 -31 -32 -31 -30 -28 -26 -24 -21 -18 -15 -12 -10 -8 -8 -7 -7 -7 -6 -6 -7 -7 -7 -7 -7 -8 -8 -8 -8 -7 -7 -7 -7 -7 -7 -7
-34 -34 -33 -33 -32 -33 -33 -33 -33 -33 -33 -32 -31 -29 -27 -25 -22 -19 -15 -12 -10 -8 -7 -7 -7 -7 -7 -7 -7 -7 -7 -8 -8 -8 -8 -8 -8 -7 -7 -7 -7 -7
-34 -34 -34 -34 -33 -33 -32 -32 -32 -33 -34 -33 -34 -34 -33 -31 -29 -27 -24 -20 -17 -13 -10 -8 -7 -6 -6 -7 -7 -7 -7 -7 -8 -8 -8 -8 -8 -8 -8 -8 -7 -7
-30 -31 -32 -33 -33 -33 -33 -32 -32 -32 -33 -33 -32 -33 -33 -34 -33 -31 -30 -28 -26 -22 -18 -14 -11 -8 -7 -6 -6 -6 -7 -7 -7 -8 -8 -8 -8 -8 -8 -8 -8 -8
-25 -25 -27 -28 -29 -31 -31 -32 -33 -31 -32 -32 -31 -30 -30 -31 -32 -32 -32 -31 -30 -30 -28 -25 -20 -15 -11 -8 -6 -6 -6 -6 -7 -7 -8 -8 -8 -8 -8 -8 -8 -8
-23 -23 -24 -25 -26 -27 -28 -29 -30 -30 -32 -33 -32 -31 -30 -29 -29 -29 -31 -31 -31 -31 -31 -31 -30 -27 -21 -16 -11 -8 -6 -5 -6 -6 -7 -7 -8 -8 -8 -8 -8 -8
-20 -21 -22 -23 -24 -25 -26 -26 -26 -27 -28 -29 -31 -33 -32 -31 -29 -28 -29 -29 -30 -30 -30 -30 -31 -31 -31 -28 -22 -16 -10 -7 -5 -5 -6 -7 -7 -8 -8 -8 -8 -8
-17 -18 -19 -20 -22 -22 -23 -24 -25 -25 -26 -26 -27 -29 -30 -31 -31 -30 -29 -29 -28 -29 -29 -30 -31 -31 -30 -31 -31 -28 -21 -14 -9 -6 -5 -6 -7 -7 -7 -8 -8 -8
-16 -16 -17 -18 -19 -20 -20 -21 -22 -23 -23 -23 -24 -25 -26 -28 -30 -30 -30 -30 -29 -29 -29 -29 -30 -31 -31 -30 -30 -31 -32 -28 -19 -11 -7 -5 -6 -6 -7 -7 -8 -8
-16 -16 -17 -18 -19 -19 -19 -20 -20 -21 -21 -21 -21 -22 -23 -25 -27 -28 -29 -28 -28 -28 -28 -29 -29 -31 -31 -30 -29 -29 -29 -31 -31 -24 -15 -9 -6 -6 -6 -7 -7 -8
-17 -18 -18 -18 -19 -19 -19 -19 -19 -20 -20 -20 -20 -20 -21 -22 -23 -24 -26 -28 -28 -27 -25 -27 -29 -30 -30 -30 -29 -28 -27 -27 -29 -32 -29 -19 -12 -7 -6 -6 -7 -7
-18 -18 -18 -18 -19 -19 -19 -19 -19 -19 -19 -19 -19 -19 -19 -20 -21 -21 -22 -24 -26 -27 -25 -26 -29 -29 -28 -29 -29 -28 -27 -26 -25 -27 -31 -31 -22 -14 -8 -6 -6 -7
-17 -17 -17 -17 -17 -18 -20 -20 -20 -20 -20 -19 -19 -19 -19 -19 -20 -20 -20 -21 -22 -24 -24 -25 -28 -29 -27 -27 -28 -28 -26 -24 -24 -24 -25 -30 -33 -25 -15 -9 -6 -6
-17 -17 -17 -17 -16 -17 -18 -20 -21 -21 -21 -21 -20 -20 -20 -20 -19 -19 -20 -20 -20 -21 -23 -23 -25 -28 -27 -25 -26 -27 -26 -24 -23 -22 -22 -25 -29 -33 -26 -17 -11 -7
-18 -18 -18 -18 -18 -17 -16 -17 -19 -20 -22 -22 -21 -20 -20 -20 -21 -21 -20 -20 -20 -20 -21 -21 -22 -25 -26 -25 -25 -25 -25 -25 -23 -22 -21 -22 -24 -28 -31 -30 -20 -11
-20 -19 -19 -19 -19 -18 -17 -17 -17 -18 -19 -19 -19 -19 -19 -19 -20 -21 -21 -21 -21 -20 -21 -21 -21 -22 -24 -24 -24 -24 -24 -25 -23 -22 -22 -22 -23 -24 -26 -32 -31 -18

ECMWFNIL_850_dewp_024.txt.gz
Dewpoint
-9 -9 -9 -8 -8 -8 -8 -7 -7 -7 -7 -6 -6 -6 -6 -6 -6 -6 -6 -6 -6 -7 -7 -7 -7 -6 -6 -6 -6 -5 -5 -5 -5 -5 -4 -4 -5 -6 -7 -10 -14 -17
-12 -11 -10 -9 -9 -9 -9 -8 -8 -8 -8 -7 -7 -7 -7 -6 -6 -6 -6 -6 -6 -6 -7 -7 -7 -7 -7 -6 -6 -6 -6 -5 -5 -5 -5 -5 -5 -6 -6 -8 -10 -14
-17 -16 -15 -13 -12 -11 -11 -10 -9 -9 -8 -8 -8 -7 -7 -7 -7 -6 -6 -6 -6 -6 -6 -7 -7 -7 -7 -7 -6 -6 -6 -6 -6 -6 -5 -5 -6 -6 -6 -7 -8 -10
-23 -22 -22 -20 -19 -17 -16 -14 -13 -12 -11 -10 -9 -8 -8 -8 -7 -7 -7 -6 -6 -6 -6 -6 -6 -7 -7 -7 -7 -7 -6 -6 -6 -6 -6 -6 -6 -6 -6 -7 -7 -9
-29 -28 -28 -28 -27 -25 -24 -22 -20 -19 -17 -15 -14 -12 -11 -10 -9 -8 -7 -7 -7 -7 -7 -6 -6 -6 -6 -7 -7 -7 -7 -7 -7 -6 -6 -6 -6 -6 -6 -6 -7 -7
-31 -31 -32 -31 -31 -31 -31 -30 -29 -27 -26 -23 -21 -19 -17 -15 -13 -11 -10 -9 -8 -7 -7 -7 -6 -6 -6 -6 -6 -7 -7 -7 -7 -7 -7 -7 -6 -6 -6 -6 -6 -7
-32 -32 -33 -33 -33 -33 -32 -33 -32 -32 -33 -31 -30 -29 -26 -24 -21 -19 -16 -13 -11 -9 -8 -7 -7 -7 -7 -6 -6 -6 -7 -7 -7 -7 -7 -7 -7 -7 -6 -6 -6 -6
-30 -31 -32 -32 -32 -32 -33 -33 -32 -32 -32 -33 -33 -33 -33 -32 -30 -28 -25 -22 -18 -15 -11 -9 -7 -7 -7 -7 -7 -6 -6 -6 -7 -7 -7 -7 -7 -7 -7 -7 -6 -6
-30 -30 -30 -31 -32 -32 -32 -32 -31 -32 -32 -32 -32 -32 -32 -33 -33 -34 -32 -30 -28 -24 -20 -16 -12 -9 -7 -7 -7 -7 -7 -6 -7 -7 -7 -7 -7 -7 -7 -7 -7 -7
-30 -30 -30 -31 -31 -31 -31 -31 -31 -32 -32 -31 -32 -31 -31 -31 -31 -32 -32 -33 -34 -32 -31 -27 -22 -17 -12 -9 -7 -6 -6 -7 -7 -7 -7 -7 -7 -7 -8 -8 -7 -7
-32 -31 -31 -31 -31 -31 -31 -31 -31 -32 -32 -32 -33 -33 -33 -32 -31 -31 -30 -31 -32 -33 -34 -34 -32 -29 -23 -18 -13 -9 -7 -6 -6 -7 -7 -7 -7 -7 -8 -8 -8 -8
-30 -30 -30 -29 -30 -30 -31 -31 -31 -32 -32 -33 -33 -33 -33 -34 -34 -34 -33 -32 -31 -31 -31 -32 -33 -33 -33 -30 -25 -19 -14 -10 -8 -6 -6 -6 -7 -7 -7 -8 -7 -8
-28 -28 -28 -27 -27 -28 -28 -29 -29 -29 -30 -30 -31 -32 -32 -33 -33 -34 -35 -35 -34 -33 -31 -31 -31 -32 -34 -34 -32 -30 -27 -21 -16 -11 -8 -6 -6 -5 -6 -7 -7 -8
-24 -24 -25 -25 -25 -25 -26 -26 -26 -26 -27 -27 -28 -29 -29 -30 -31 -32 -32 -33 -34 -35 -34 -33 -31 -31 -32 -32 -33 -33 -31 -31 -28 -23 -18 -13 -9 -7 -5 -5 -6 -7
-19 -20 -21 -21 -22 -23 -24 -24 -24 -24 -24 -24 -25 -25 -25 -26 -27 -28 -29 -30 -31 -32 -33 -34 -34 -33 -31 -30 -31 -32 -31 -32 -32 -31 -29 -25 -20 -15 -10 -7 -5 -5
-17 -18 -19 -19 -20 -21 -22 -23 -23 -24 -24 -24 -24 -24 -24 -24 -25 -25 -26 -27 -28 -29 -30 -31 -32 -33 -33 -32 -30 -30 -31 -31 -31 -30 -31 -30 -30 -27 -22 -16 -11 -7
-15 -16 -17 -19 -20 -21 -22 -23 -24 -25 -26 -26 -27 -27 -26 -26 -25 -25 -26 -25 -25 -26 -26 -27 -29 -29 -30 -30 -30 -30 -30 -30 -29 -29 -29 -29 -30 -30 -30 -29 -24 -17
-14 -16 -17 -19 -21 -22 -23 -24 -25 -27 -28 -29 -30 -30 -29 -30 -29 -29 -28 -28 -27 -26 -26 -26 -26 -27 -28 -27 -28 -29 -29 -29 -29 -28 -28 -27 -28 -29 -29 -30 -31 -30
-16 -17 -19 -20 -21 -22 -23 -24 -26 -27 -29 -30 -31 -32 -32 -33 -33 -33 -32 -31 -30 -29 -28 -27 -26 -27 -26 -25 -25 -27 -27 -27 -26 -27 -28 -27 -27 -28 -28 -29 -29 -30
-18 -18 -19 -21 -22 -23 -23 -25 -25 -26 -27 -28 -28 -29 -32 -33 -33 -35 -35 -35 -34 -32 -31 -30 -30 -29 -27 -24 -23 -24 -24 -25 -24 -25 -26 -27 -27 -27 -27 -28 -30 -29
-19 -20 -21 -22 -23 -23 -23 -23 -23 -23 -24 -25 -24 -25 -26 -27 -26 -27 -27 -27 -27 -27 -26 -27 -29 -31 -30 -26 -24 -22 -21 -21 -21 -22 -24 -24 -26 -28 -27 -28 -29 -29
-22 -22 -23 -24 -24 -23 -22 -22 -22 -22 -23 -23 -22 -22 -22 -22 -21 -21 -21 -21 -21 -21 -21 -22 -24 -26 -26 -27 -26 -24 -22 -19 -18 -18 -20 -20 -22 -24 -26 -27 -28 -28
-23 -23 -24 -24 -23 -23 -22 -22 -22 -22 -21 -21 -20 -20 -20 -20 -20 -20 -20 -20 -20 -20 -20 -20 -20 -21 -21 -22 -23 -24 -24 -22 -19 -17 -17 -18 -19 -21 -23 -24 -26 -27
-25 -24 -24 -23 -23 -22 -21 -21 -20 -20 -20 -20 -20 -20 -20 -20 -20 -20 -20 -20 -20 -20 -20 -20 -20 -21 -21 -21 -21 -22 -22 -23 -22 -19 -16 -16 -16 -17 -19 -21 -23 -25
-24 -23 -22 -21 -21 -20 -20 -20 -20 -20 -20 -21 -21 -21 -21 -21 -21 -20 -20 -20 -19 -19 -18 -18 -19 -20 -21 -20 -21 -21 -21 -21 -22 -20 -18 -17 -17 -16 -17 -18 -19 -22
-22 -21 -20 -20 -20 -20 -20 -20 -20 -21 -21 -21 -22 -22 -22 -22 -22 -21 -20 -21 -21 -20 -19 -19 -19 -19 -20 -20 -20 -20 -21 -21 -20 -19 -18 -18 -19 -18 -16 -16 -17 -18

ECMWFNIL_850_dewp_030.txt.gz
Dewpoint
-12 -13 -14 -15 -17 -18 -20 -21 -22 -22 -22 -22 -23 -24 -25 -25 -25 -24 -24 -23 -21 -19 -17 -15 -13 -12 -10 -9 -8 -7 -7 -7 -7 -6 -6 -6 -5 -5 -4 -3 -3 -2
-17 -18 -19 -20 -22 -23 -25 -27 -29 -29 -29 -29 -30 -31 -32 -32 -33 -33 -33 -33 -33 -33 -32 -30 -28 -26 -23 -20 -17 -14 -11 -10 -8 -8 -7 -7 -6 -6 -5 -5 -4 -4
-24 -26 -26 -27 -28 -29 -31 -32 -33 -33 -33 -33 -34 -34 -34 -35 -35 -35 -36 -35 -36 -36 -36 -37 -36 -36 -36 -35 -33 -29 -25 -22 -18 -15 -13 -11 -9 -8 -6 -6 -5 -5
-30 -30 -31 -32 -32 -34 -34 -34 -35 -35 -35 -35 -35 -35 -35 -36 -35 -35 -35 -34 -35 -35 -35 -36 -35 -36 -36 -35 -37 -37 -36 -36 -34 -31 -28 -25 -21 -16 -13 -10 -8 -6
-32 -32 -33 -34 -33 -34 -34 -34 -34 -33 -34 -34 -33 -35 -34 -34 -35 -34 -34 -34 -33 -34 -34 -34 -34 -34 -34 -34 -34 -35 -36 -36 -36 -37 -37 -36 -36 -33 -28 -23 -18 -13
-31 -31 -32 -31 -31 -32 -31 -31 -32 -31 -31 -32 -31 -32 -32 -31 -33 -32 -33 -33 -33 -34 -33 -34 -34 -34 -33 -34 -34 -34 -34 -35 -35 -35 -36 -36 -36 -36 -37 -36 -35 -30
-30 -30 -29 -29 -28 -28 -27 -28 -28 -27 -28 -28 -28 -29 -28 -29 -30 -31 -31 -32 -32 -34 -34 -35 -36 -36 -35 -34 -35 -34 -34 -34 -34 -33 -34 -34 -34 -34 -36 -36 -36 -38
-28 -27 -26 -26 -24 -24 -24 -24 -24 -24 -25 -25 -26 -27 -27 -28 -29 -30 -31 -31 -33 -33 -33 -35 -34 -35 -37 -36 -36 -36 -35 -35 -34 -34 -34 -33 -34 -33 -34 -35 -34 -35
-24 -23 -22 -22 -21 -21 -22 -22 -22 -23 -23 -24 -25 -26 -27 -29 -29 -30 -32 -32 -33 -33 -33 -34 -34 -34 -35 -35 -35 -35 -35 -36 -35 -35 -36 -35 -36 -36 -34 -34 -32 -32
-21 -21 -20 -20 -20 -20 -21 -21 -22 -22 -23 -24 -25 -26 -27 -29 -30 -31 -33 -32 -34 -34 -34 -34 -34 -35 -36 -35 -37 -36 -36 -37 -36 -36 -37 -36 -36 -36 -36 -37 -37 -35
-20 -20 -20 -20 -20 -20 -20 -21 -21 -22 -23 -24 -25 -27 -28 -30 -31 -32 -34 -34 -34 -34 -35 -36 -35 -36 -36 -36 -36 -38 -38 -38 -38 -38 -39 -38 -39 -38 -38 -38 -37 -37
-19 -20 -19 -19 -19 -20 -20 -20 -21 -22 -23 -24 -26 -27 -29 -31 -32 -34 -34 -34 -35 -36 -35 -37 -37 -36 -37 -37 -38 -39 -39 -39 -38 -38 -37 -37 -38 -39 -40 -40 -40 -39
-17 -17 -17 -18 -18 -18 -19 -20 -20 -22 -23 -25 -27 -29 -31 -32 -33 -34 -35 -35 -35 -37 -37 -38 -38 -38 -38 -40 -39 -36 -34 -33 -34 -34 -35 -35 -35 -36 -37 -37 -38 -40
-15 -15 -16 -16 -17 -17 -18 -19 -20 -22 -24 -27 -30 -32 -33 -34 -35 -35 -36 -37 -38 -38 -39 -39 -39 -40 -40 -37 -31 -27 -24 -23 -23 -23 -24 -25 -27 -29 -31 -33 -35 -38
-13 -14 -15 -15 -16 -16 -17 -18 -21 -24 -27 -30 -32 -33 -35 -36 -37 -37 -37 -38 -39 -39 -39 -38 -37 -37 -33 -27 -23 -21 -20 -19 -18 -18 -17 -18 -19 -20 -22 -24 -25 -28
-12 -13 -14 -15 -15 -15 -16 -19 -24 -27 -30 -33 -34 -36 -37 -37 -37 -39 -38 -37 -34 -34 -33 -31 -28 -27 -24 -21 -19 -19 -18 -18 -17 -17 -16 -16 -16 -17 -18 -19 -19 -20
-12 -13 -14 -14 -14 -15 -18 -23 -28 -31 -34 -35 -35 -37 -36 -36 -35 -33 -32 -28 -25 -24 -23 -22 -22 -22 -20 -20 -20 -19 -19 -18 -17 -17 -17 -16 -16 -16 -17 -18 -18 -18
-12 -13 -13 -13 -15 -18 -23 -28 -31 -33 -35 -35 -36 -35 -30 -29 -27 -24 -23 -22 -20 -20 -20 -20 -21 -20 -20 -20 -19 -20 -19 -18 -17 -17 -17 -17 -17 -17 -17 -17 -18 -18
-13 -13 -14 -16 -20 -24 -29 -31 -32 -34 -34 -33 -30 -27 -24 -23 -21 -20 -20 -20 -20 -20 -20 -20 -20 -20 -19 -19 -19 -19 -19 -18 -18 -18 -18 -18 -18 -18 -18 -18 -18 -18
-13 -15 -18 -21 -26 -29 -31 -32 -33 -33 -29 -26 -23 -21 -20 -20 -20 -20 -20 -20 -19 -20 -20 -20 -20 -20 -20 -20 -20 -20 -21 -20 -19 -19 -19 -19 -19 -19 -18 -18 -18 -18
-16 -20 -24 -27 -29 -30 -31 -32 -31 -27 -24 -21 -20 -20 -20 -20 -20 -20 -20 -20 -20 -20 -20 -21 -21 -21 -22 -22 -22 -22 -23 -22 -21 -20 -20 -20 -20 -21 -20 -19 -20 -19
-21 -24 -27 -29 -30 -31 -31 -30 -26 -22 -20 -19 -19 -19 -19 -19 -20 -20 -20 -20 -20 -21 -21 -21 -21 -22 -23 -23 -23 -23 -24 -23 -23 -23 -23 -23 -23 -23 -22 -22 -22 -20
-25 -27 -28 -29 -30 -30 -28 -25 -22 -20 -19 -19 -19 -19 -19 -19 -20 -20 -20 -21 -21 -21 -22 -22 -22 -23 -23 -23 -23 -23 -23 -23 -23 -23 -23 -22 -22 -22 -22 -22 -21 -20
-27 -28 -29 -29 -29 -27 -24 -21 -20 -19 -19 -19 -19 -19 -20 -20 -20 -21 -21 -22 -22 -22 -22 -22 -22 -23 -23 -23 -23 -23 -23 -23 -21 -21 -21 -21 -21 -20 -20 -20 -20 -19
-27 -28 -28 -28 -27 -24 -21 -19 -19 -19 -19 -19 -19 -20 -20 -20 -21 -21 -21 -22 -22 -22 -22 -23 -23 -23 -23 -23 -23 -23 -23 -22 -21 -20 -20 -20 -20 -20 -20 -20 -20 -19
-28 -27 -27 -26 -24 -21 -20 -19 -19 -19 -19 -19 -19 -20 -20 -21 -21 -21 -22 -22 -22 -22 -22 -22 -22 -22 -22 -22 -22 -22 -22 -21 -20 -20 -20 -20 -20 -20 -20 -20 -19 -19

ECMWFNIL_850_dewp_033.txt.gz
Dewpoint
-13 -13 -14 -14 -14 -15 -15 -16 -17 -18 -20 -22 -23 -24 -26 -28 -30 -32 -33 -33 -34 -34 -34 -35 -34 -34 -35 -35 -35 -34 -34 -34 -34 -35 -34 -32 -31 -27 -22 -18 -14 -12
-16 -16 -17 -18 -18 -19 -19 -20 -22 -23 -25 -27 -28 -30 -32 -33 -33 -34 -34 -34 -34 -34 -35 -35 -34 -34 -34 -34 -35 -34 -34 -35 -35 -36 -36 -36 -37 -36 -36 -35 -31 -28
-20 -22 -22 -23 -24 -24 -25 -27 -28 -30 -31 -31 -32 -32 -33 -34 -34 -34 -34 -33 -33 -33 -33 -33 -33 -33 -34 -34 -35 -35 -35 -36 -35 -36 -36 -36 -36 -36 -36 -36 -35 -37
-26 -27 -28 -30 -30 -31 -32 -33 -33 -33 -33 -33 -33 -33 -33 -33 -33 -32 -33 -33 -32 -32 -32 -33 -34 -34 -35 -35 -35 -35 -36 -36 -36 -37 -37 -37 -37 -36 -36 -37 -37 -37
-31 -31 -31 -32 -32 -32 -32 -32 -32 -31 -31 -31 -30 -31 -30 -30 -31 -30 -31 -31 -31 -32 -32 -32 -33 -33 -35 -35 -35 -36 -36 -36 -37 -37 -38 -37 -37 -38 -37 -37 -37 -37
-31 -30 -30 -30 -29 -29 -28 -28 -28 -27 -28 -28 -27 -28 -27 -27 -28 -27 -28 -29 -29 -30 -31 -31 -33 -33 -34 -34 -35 -36 -36 -36 -36 -36 -37 -37 -37 -37 -37 -37 -37 -38
-28 -27 -26 -26 -25 -25 -25 -25 -25 -24 -25 -25 -24 -25 -24 -25 -26 -26 -27 -27 -28 -30 -31 -32 -33 -34 -34 -34 -35 -36 -35 -36 -36 -36 -37 -36 -37 -37 -37 -37 -37 -37
-23 -22 -22 -22 -22 -22 -22 -22 -22 -22 -23 -23 -23 -23 -23 -24 -24 -25 -26 -27 -29 -30 -31 -32 -33 -34 -35 -34 -35 -35 -35 -36 -36 -37 -37 -37 -38 -37 -37 -39 -38 -38
-20 -20 -20 -21 -21 -21 -21 -21 -21 -21 -21 -22 -22 -22 -22 -23 -24 -25 -26 -26 -28 -30 -31 -33 -33 -34 -35 -35 -36 -36 -36 -37 -37 -38 -38 -38 -39 -38 -38 -39 -38 -38
-20 -20 -20 -21 -20 -20 -20 -20 -20 -20 -20 -20 -21 -21 -21 -22 -23 -24 -25 -27 -29 -30 -32 -33 -34 -35 -36 -36 -38 -38 -38 -39 -38 -39 -38 -38 -39 -38 -39 -39 -38 -39
-20 -19 -19 -18 -18 -17 -17 -18 -18 -18 -18 -18 -19 -19 -20 -22 -23 -24 -26 -29 -30 -32 -33 -35 -36 -37 -37 -38 -38 -37 -36 -35 -34 -35 -35 -34 -35 -35 -34 -34 -34 -35
-18 -17 -17 -16 -16 -15 -15 -16 -17 -17 -17 -17 -17 -18 -20 -21 -24 -27 -29 -32 -34 -35 -36 -37 -38 -38 -38 -37 -34 -30 -28 -27 -27 -27 -27 -27 -28 -29 -28 -27 -27 -28
-16 -16 -15 -15 -14 -14 -13 -14 -15 -16 -16 -16 -16 -17 -19 -23 -26 -30 -33 -35 -36 -37 -38 -38 -38 -36 -33 -31 -26 -24 -23 -23 -23 -23 -23 -23 -23 -23 -23 -23 -23 -23
-15 -14 -14 -14 -13 -13 -12 -13 -14 -15 -15 -15 -15 -17 -21 -26 -30 -33 -36 -36 -37 -38 -37 -36 -33 -30 -27 -24 -22 -21 -21 -21 -22 -21 -21 -22 -22 -22 -22 -22 -22 -21
-13 -13 -13 -13 -12 -12 -11 -12 -13 -14 -15 -15 -16 -19 -24 -30 -34 -35 -37 -38 -38 -37 -33 -29 -26 -24 -23 -21 -21 -21 -21 -21 -21 -21 -21 -22 -22 -22 -22 -22 -22 -21
-12 -12 -12 -12 -12 -11 -11 -12 -13 -14 -14 -15 -17 -23 -29 -33 -35 -36 -37 -37 -35 -32 -28 -24 -22 -21 -21 -20 -20 -20 -21 -21 -21 -22 -22 -22 -22 -22 -22 -22 -22 -21
-12 -11 -11 -11 -11 -11 -12 -13 -13 -13 -14 -17 -22 -29 -33 -34 -36 -36 -37 -33 -29 -26 -23 -21 -21 -20 -20 -21 -21 -21 -21 -21 -22 -22 -22 -22 -22 -22 -22 -22 -21 -21
-11 -11 -11 -11 -11 -12 -13 -13 -13 -14 -17 -22 -28 -33 -34 -36 -37 -35 -32 -27 -24 -22 -21 -20 -20 -20 -20 -21 -21 -21 -21 -21 -22 -22 -22 -22 -22 -21 -21 -21 -21 -21
-11 -11 -11 -12 -12 -13 -13 -13 -14 -18 -23 -28 -33 -33 -35 -36 -33 -31 -27 -23 -21 -20 -20 -20 -20 -20 -21 -21 -21 -22 -22 -22 -22 -21 -21 -21 -21 -21 -22 -22 -22 -22
-11 -11 -12 -13 -13 -12 -13 -15 -19 -24 -29 -32 -34 -34 -36 -35 -31 -27 -23 -21 -20 -20 -20 -20 -20 -21 -21 -21 -22 -22 -22 -22 -21 -21 -22 -21 -21 -22 -22 -22 -22 -23
-12 -12 -12 -12 -12 -13 -16 -20 -25 -29 -32 -32 -33 -34 -33 -30 -26 -23 -21 -20 -19 -20 -20 -20 -21 -21 -22 -22 -22 -22 -21 -22 -22 -22 -22 -22 -22 -22 -22 -22 -22 -22
-12 -12 -12 -12 -14 -17 -21 -26 -29 -31 -32 -32 -33 -32 -29 -25 -22 -20 -19 -19 -19 -20 -20 -21 -21 -22 -22 -22 -22 -22 -22 -22 -22 -22 -22 -22 -22 -22 -22 -22 -22 -21
-12 -12 -13 -15 -18 -22 -26 -29 -30 -31 -31 -31 -31 -29 -25 -22 -20 -19 -19 -19 -20 -20 -21 -21 -21 -22 -22 -22 -21 -21 -22 -22 -22 -22 -22 -22 -22 -22 -21 -21 -21 -20
-12 -13 -15 -19 -23 -26 -28 -29 -30 -30 -30 -28 -26 -24 -22 -20 -19 -19 -19 -20 -20 -21 -21 -21 -22 -22 -21 -21 -21 -21 -22 -22 -22 -22 -22 -22 -21 -21 -21 -21 -20 -20
-13 -15 -18 -22 -25 -27 -29 -29 -29 -29 -28 -25 -23 -21 -20 -19 -19 -19 -19 -20 -21 -21 -21 -21 -21 -21 -21 -21 -21 -21 -21 -21 -22 -21 -21 -21 -21 -21 -20 -20 -20 -20
-15 -18 -22 -25 -26 -27 -28 -29 -28 -27 -25 -23 -21 -20 -19 -19 -19 -19 -20 -20 -21 -21 -21 -21 -21 -21 -21 -21 -21 -21 -21 -21 -21 -21 -21 -20 -20 -20 -20 -19 -19 -19